Aérodrome :
LOGIN :

S'inscrire | Disclaimer

   EN    FR    IT 

 










Légende :    VFR   VFR Marginal   IFR   IFR Intensif   IFR Très Intensif
Visi : 
Plafond : 
>= 8 km
>= 3000ft
5 à 8 km
1000 à 3000 ft
1500m à 5 km
500 à 1000 ft
800 à 1500m
200 à 500 ft
< 800m
< 200 ft
Symboles :   Orages  Brouillard  Fortes neiges  Fortes précipitations  Vent > 20 kt
SIGMETs :   Divers  Orages  Givrage  Turbulence  Onde Orograph.  Cendres Volcan.







- Altitude de l'aérodrome : 9 ft
- Code IATA : MIR


DTMB - Habib Bourguliba Int. Monastir

DERNIER METAR :
  • 210400Z AUTO 15007KT NCD 10/05 Q1009

METARs EXPIRÉS :
  • 210300Z 16007KT 8000 NSC 11/05 Q1010
  • 210230Z 16010KT 8000 NSC 11/05 Q1010
  • 210200Z 17011KT 8000 NSC 11/04 Q1010
  • 210130Z 17012KT 8000 NSC 11/04 Q1010

TAF TAF DTMB
Valide du 21 à 00h jusqu'au 22 à 00h UTC


202300Z 2100/2124 18012KT 8000 FEW026
PROB30
TEMPO 2110/2115 -TSRA SCT026TCU
BECMG 2111/2113 04008KT
BECMG 2117/2119 31015KT
Pas de NOTAMs connus pour ce terrain.



MET'MAP, la Météo Aéronautique d'un coup d'oeil ! - Copyright ORBIFLY Décembre 2007 - Disclaimer

ORBIFLY MET'MAP TEAM :

Programmation & Développement : Alexandra Zaïnal
Conception & Développement : Baudouin d'Aumeries
Co-Programmation & Développement : Marc-Olivier Méhu
Soutien technique & logistique : Manuel Goepfert

Contact : metmap@orbifly.com




SOURCES & CREDITS :

   NOAA